Kosmos-2433

operational
NORAD ID: 32277 Int'l Des: 2007-052 Owner: KVR/IACG Country: RU
MEOCIRCULAR

Kosmos-2433について

説明を読み込み中...

リアルタイム位置

3D地球を読み込み中...

次回通過

高度履歴

Altitude vs Time

uPlot chart will show altitude changes over time

軌道要素

1 32277U 07052C 25257.12392308 -.00000060 00000-0 00000-0 0 9991
2 32277 65.7416 325.1454 0016077 178.4345 239.8516 2.13208976139330
Epoch: Sep 14, 2025 • Age: 42 hours

現在のステータス

高度 19164.2 km
速度 3.95 km/s
衛星直下点 -44.80°S, 5.41°W
打ち上げ日 Oct 26, 2007
運用期間 17.8 years
タイプ other

技術仕様

分類 Payload
質量 1450.00 kg
乾燥質量 1200.00 kg
総質量 1450.00 kg
長さ 4.00 m
直径 1.50 m
スパン 7.80 m
形状 Cyl + Ant + 2 Pan
製造者 RESH
バスタイプ Uragan
フェーズステータス In Orbit
所有者/国 KVR/IACG/RU

大規模コンステレーション

Loading constellations...